Miscellaneous Local Product
Issued by NWS Hastings, NE

Home | Current Version | Previous Version | Text Only | Print | Product List | Glossary Off
Versions: 1 2 3 4 5 6 7 8 9 10 11 12 13 14 15 16 17 18 19 20 21 22 23 24 25 26 27 28 29 30 31 32 33 34 35 36 37 38 39 40 41 42 43 44 45 46 47 48 49 50

276
AXUS43 KGID 271602
MISGRI

GID CWA HOURLY WEATHER ROUNDUP
NATIONAL WEATHER SERVICE HASTINGS NE
1100 AM CDT SUN MAY 27 2018

NOTE: "FAIR" INDICATES FEW OR NO CLOUDS BELOW 12,000 FEET WITH NO
SIGNIFICANT WEATHER AND/OR OBSTRUCTIONS TO VISIBILITY.

...SOUTH CENTRAL NEBRASKA...

CITY           SKY/WX    TMP DP  RH WIND       PRES   REMARKS
GRAND ISLAND   MOSUNNY   89  62  40 SW18G24   29.87S
KEARNEY        MOSUNNY   85  61  44 SW17      29.89R
HASTINGS       MOSUNNY   85  60  42 SW13G24   29.89S
ORD            PTSUNNY   83  63  50 SW14G23   29.85S
YORK           MOSUNNY   90  59  35 SW16      29.87F
AURORA         MOSUNNY   89  56  33 SW18      29.87S
LEXINGTON      PTSUNNY   83  65  54 SW18      29.88S
HOLDREGE       MOSUNNY   84  63  49 SW16G24   29.89S
HEBRON         PTSUNNY   89  60  37 SW13G18   29.88S

...NEBRASKA PANHANDLE...

CITY           SKY/WX    TMP DP  RH WIND       PRES   REMARKS
CHADRON        PTSUNNY   74  60  61 NE10      29.86R
ALLIANCE       CLOUDY    74  58  57 S7        29.86R
SCOTTSBLUFF    PTSUNNY   75  59  57 NW6       29.87R
SIDNEY         CLOUDY    76  53  44 NW15      29.91S

...WESTERN AND NORTH CENTRAL NEBRASKA...

CITY           SKY/WX    TMP DP  RH WIND       PRES   REMARKS
VALENTINE      PTSUNNY   84  62  47 SW12      29.83R
AINSWORTH      PTSUNNY   83  63  51 S25G33    29.81F
ONEILL         SUNNY     87  61  41 SW15G22   29.84F
BROKEN BOW     PTSUNNY   81  64  56 S14       29.87F
IMPERIAL       CLOUDY    85  64  49 S23G39    29.84F
NORTH PLATTE   CLOUDY    82  66  58 SW7       29.86S
MCCOOK         PTSUNNY   84  64  50 S16       29.86F

...EASTERN NEBRASKA...

CITY           SKY/WX    TMP DP  RH WIND       PRES   REMARKS
NORFOLK        NOT AVBL
SO SIOUX CITY  SUNNY     91  64  40 S10       29.83S HX  92
TEKAMAH        SUNNY     92  57  30 SW12      29.84F HX  90
COLUMBUS       SUNNY     90  61  37 SW14      29.86S HX  90
ALBION         CLOUDY    89  62  41 SW14G21   29.86S
OMAHA EPPLEY   MOSUNNY   90  64  42 W3        29.86R HX  91
MILLARD        SUNNY     90  64  43 CALM      29.86S HX  91
LINCOLN        SUNNY     90  60  36 SW14      29.87S
NEBRASKA CITY  SUNNY     91  60  35 SW12      29.88R HX  90
BEATRICE       MOSUNNY   87  66  49 SW8       29.89R
FALLS CITY     SUNNY     90  63  40 SW10      29.87S HX  91

...NORTHERN KANSAS...

CITY           SKY/WX    TMP DP  RH WIND       PRES   REMARKS
GOODLAND       CLOUDY    77  63  61 S25G35    29.89S
HILL CITY      MOSUNNY   84  67  56 S16G24    29.87F
NORTON         SUNNY     90  64  43 S14G21    29.86F HX  91
PHILLIPSBURG   SUNNY     88  64  45 S12G17    29.88S
SMITH CENTER   SUNNY     86  63  45 S17       29.89S
HAYS           SUNNY     85  67  54 S15       29.88F
RUSSELL        SUNNY     85  70  60 S14       29.88F
CONCORDIA      MOSUNNY   85  67  54 SW15      29.88S
SALINA         MOSUNNY   90  67  46 S14       29.89S HX  93
TOPEKA         SUNNY     87  69  54 S5        29.89F HX  91



USA.gov is the U.S. government's official web portal to all federal, state and local government web resources and services.